Theta_e
325 327 328 327 327 327 327 327 327 327 325 326 327 327 327 328 334 336 340 342 341 338 329 327 329 330 330 329 325 320 325 320 320 325 325 323 322 321 321 322 323 323 322 320
327 328 326 326 327 328 328 327 328 326 326 327 328 327 330 330 334 336 339 340 339 334 327 328 329 329 330 330 330 326 327 330 330 328 327 323 323 323 322 322 322 323 323 318
327 327 325 327 327 328 328 327 327 327 327 328 326 325 330 332 333 336 337 337 335 332 329 329 329 329 330 331 330 330 331 332 329 323 326 327 327 325 323 321 321 320 318 317
327 325 326 327 327 327 328 326 326 327 327 326 324 323 327 328 332 333 334 336 335 334 333 331 330 330 330 330 330 331 327 321 320 317 319 322 322 321 319 316 315 315 315 312
328 327 327 327 327 326 327 325 325 324 325 325 325 325 328 328 329 330 331 333 333 333 332 330 330 329 325 324 323 321 316 315 315 314 312 313 316 315 315 314 314 314 312 313
327 325 326 327 325 325 325 325 326 325 324 327 326 324 327 327 329 330 329 331 332 333 332 330 326 322 321 319 318 318 315 313 312 312 312 312 313 313 313 313 313 312 311 312
328 328 326 325 328 327 327 326 326 326 325 324 324 324 327 327 328 328 330 330 331 332 331 325 322 320 319 317 317 316 316 316 316 316 315 314 313 313 312 312 311 311 311 311
329 330 328 326 328 328 326 325 326 325 326 324 325 326 328 326 325 326 326 329 330 328 324 322 319 317 317 316 316 316 315 315 315 315 314 313 313 311 311 311 311 311 311 311
330 330 326 324 324 324 326 327 324 326 327 326 326 325 326 326 325 325 325 326 325 323 321 319 318 317 317 316 316 316 315 314 313 312 312 312 312 311 311 310 311 311 311 310
330 331 328 326 323 323 325 323 327 328 329 326 324 325 325 325 326 325 325 324 323 321 319 318 318 317 316 316 315 314 313 312 312 312 312 312 310 310 311 311 311 310 308 309
331 332 330 328 328 327 325 325 325 325 326 327 326 325 325 325 325 325 325 324 321 320 318 318 317 316 316 315 314 312 311 312 312 312 311 310 309 307 309 310 309 308 309 309
330 332 332 329 325 324 325 326 325 327 328 326 326 327 324 325 323 322 323 322 320 319 318 317 316 315 315 314 313 311 312 312 312 312 311 310 309 307 308 309 309 309 309 308
329 331 332 330 327 325 325 324 324 326 327 327 330 328 324 323 323 321 321 320 319 318 318 317 316 315 314 313 311 312 312 312 311 311 310 310 309 308 310 308 308 308 308 308
327 330 329 328 327 325 326 324 324 325 328 327 325 324 325 324 325 322 321 320 319 318 317 316 316 314 313 311 311 312 312 311 311 310 309 307 306 309 307 308 308 308 308 308
330 329 328 327 326 324 324 323 324 325 325 327 326 325 325 324 323 322 321 320 319 318 317 316 315 314 312 311 311 312 312 311 311 309 307 307 307 306 307 308 308 309 308 308
327 330 328 327 326 325 324 324 325 325 325 325 325 325 323 322 321 321 320 320 318 317 317 315 314 312 311 311 311 312 312 311 309 307 307 306 305 306 307 308 309 309 309 309
330 330 330 328 325 325 325 325 325 325 325 325 325 324 323 323 322 322 321 320 318 318 316 314 313 311 311 311 311 312 311 311 310 308 306 305 305 306 308 309 309 309 307 308
331 332 328 327 327 326 325 324 324 325 325 325 324 324 323 322 322 321 320 319 319 317 315 314 312 311 311 310 311 311 311 311 309 306 306 305 306 307 309 309 309 309 309 309
328 330 327 327 325 325 324 325 326 327 327 325 324 323 322 322 322 322 321 319 318 316 315 313 311 310 310 310 310 311 311 309 306 305 305 305 306 307 309 308 309 307 308 308
327 329 329 327 327 325 326 325 324 324 330 324 324 323 323 323 324 324 320 319 317 316 314 313 311 310 310 310 310 310 309 307 307 305 305 306 307 308 308 309 306 308 308 307
329 329 329 326 327 324 324 324 323 330 331 325 323 323 323 324 322 324 319 318 316 315 313 312 310 309 309 309 309 308 308 306 306 305 305 306 307 309 309 309 308 308 308 308
329 330 328 326 325 325 324 323 331 327 328 326 325 324 323 323 323 322 320 318 316 314 313 312 310 309 309 309 309 307 306 305 305 304 305 306 309 309 309 309 309 309 308 309
329 326 326 326 324 328 325 325 326 327 326 325 325 324 324 323 323 322 320 318 316 314 313 311 310 309 308 308 308 306 306 305 304 305 305 307 309 309 309 309 309 309 308 309
325 325 327 327 325 324 325 325 325 325 324 324 324 324 324 323 323 322 319 318 315 314 312 310 309 308 308 307 306 305 305 304 304 305 305 307 309 309 309 310 309 308 310 311
324 325 325 326 325 323 324 323 325 324 324 324 324 323 323 323 322 321 319 317 315 313 312 310 309 308 307 305 305 306 305 304 305 305 305 307 309 309 310 310 309 308 311 311
323 325 327 326 325 326 324 326 324 323 323 323 323 321 322 322 322 320 318 316 314 313 311 310 309 308 305 304 304 305 304 303 304 305 306 308 309 309 310 310 309 309 310 310
Wind_Speed
5 9 6 9 8 6 2 1 4 0 3 7 6 9 11 8 14 18 18 18 17 17 16 16 11 7 6 8 11 13 13 15 17 17 18 19 19 20 19 18 17 17 16 17
10 9 7 6 4 2 3 5 1 4 3 9 9 11 6 7 13 16 16 17 18 17 17 15 11 10 10 11 12 15 14 15 16 17 19 25 26 23 23 22 20 18 16 25
2 12 4 1 1 6 2 8 6 9 11 14 9 15 7 4 8 9 12 15 17 17 17 14 12 12 13 13 14 16 16 17 20 25 24 22 23 24 24 25 22 22 26 25
7 8 2 2 2 7 6 6 8 11 12 10 6 6 5 2 6 12 15 17 17 17 16 14 13 13 14 15 15 16 19 22 19 25 24 21 20 19 19 22 22 23 26 33
6 7 3 3 6 4 7 7 9 10 12 7 5 8 8 1 3 7 13 17 17 17 16 15 13 13 13 12 10 11 19 22 24 23 23 21 18 20 22 25 28 29 35 30
6 2 2 5 2 2 6 9 10 6 4 7 5 5 6 5 6 5 2 11 14 16 15 12 10 8 8 8 9 10 17 19 23 24 22 23 26 29 30 33 34 33 30 28
5 6 4 2 7 7 8 10 5 4 2 4 2 8 7 5 3 4 1 5 10 13 12 9 9 9 8 9 11 13 15 17 16 19 22 25 28 28 29 27 27 24 25 26
3 7 6 2 4 7 5 7 5 5 6 10 5 2 5 3 1 2 4 5 7 7 8 8 7 6 10 12 15 16 17 19 21 24 26 27 27 28 26 24 25 24 22 23
3 1 6 4 1 4 4 4 4 6 6 7 2 3 8 4 5 4 3 4 7 7 7 6 6 9 12 15 16 17 19 22 25 28 28 27 27 25 25 24 22 20 21 21
1 7 1 4 2 4 5 2 4 4 4 8 4 4 2 2 3 5 6 8 7 6 6 6 9 12 14 15 17 19 23 26 28 28 26 27 28 27 24 22 21 22 23 25
3 3 6 5 3 7 3 5 2 4 5 5 8 4 6 5 6 9 10 6 7 7 7 8 12 13 14 17 19 22 24 26 27 26 25 26 28 27 22 21 21 23 24 26
2 3 6 6 2 4 5 6 5 4 3 4 7 9 5 4 8 7 5 4 5 6 8 11 13 14 17 19 21 23 24 25 26 25 24 24 24 22 20 20 22 24 25 31
4 2 5 5 7 5 5 2 3 3 5 10 8 5 3 3 5 5 4 4 5 7 10 12 13 16 18 21 22 23 24 24 24 22 23 24 23 22 22 24 23 24 28 26
2 2 6 8 8 6 8 7 8 7 6 10 11 15 14 11 9 4 7 6 7 9 12 12 14 17 19 21 22 23 22 22 22 22 22 23 22 21 25 25 24 29 25 24
3 6 5 7 6 8 12 12 10 11 12 10 12 14 13 10 7 2 4 6 9 13 12 12 15 18 19 22 22 21 21 20 21 23 22 22 23 23 23 24 28 26 21 21
3 4 5 10 6 9 12 11 10 10 10 10 10 13 5 5 4 3 5 8 12 13 13 14 16 18 20 21 21 21 20 20 22 23 23 26 25 24 23 29 27 21 23 20
6 3 5 8 1 9 12 12 8 4 6 6 8 9 8 7 6 7 9 10 12 12 12 14 16 18 20 21 20 21 20 20 22 23 25 25 25 23 28 28 25 21 22 21
6 6 3 6 6 9 5 4 1 5 7 7 9 8 6 8 7 8 9 10 12 11 12 14 16 18 20 21 19 21 20 20 22 24 27 25 24 24 28 27 22 24 21 21
4 6 3 5 7 11 12 10 6 3 8 5 6 6 6 5 7 15 4 6 9 8 10 12 15 18 19 21 20 20 20 20 22 23 27 25 23 27 28 25 25 27 22 17
4 5 7 4 9 9 4 6 3 2 10 9 3 6 6 4 7 5 1 4 6 7 9 12 15 17 19 20 20 20 19 24 21 26 27 26 23 27 28 26 29 24 20 15
6 6 11 9 9 8 7 5 6 7 5 1 3 6 6 8 10 3 3 4 6 7 9 11 14 17 19 19 19 18 20 19 21 25 25 24 25 27 25 25 22 18 18 17
11 7 7 8 9 13 6 8 6 8 1 2 5 8 10 11 10 8 7 6 7 8 10 11 14 16 18 18 17 18 21 20 22 24 23 23 26 26 25 21 18 17 17 16
10 12 9 7 7 3 13 11 9 7 7 6 8 9 11 12 11 11 9 7 7 7 9 11 13 16 17 17 16 21 21 21 22 21 22 23 26 26 22 19 19 19 20 16
8 5 7 6 13 16 15 17 17 13 11 11 11 12 13 14 11 10 9 7 6 7 9 11 13 15 17 17 18 19 19 19 19 19 21 23 27 25 21 19 19 21 22 12
7 7 10 11 15 16 14 15 14 12 10 12 13 13 15 14 12 10 8 6 6 6 8 10 12 14 16 16 16 19 18 19 18 18 19 23 26 23 21 19 20 21 17 14
11 11 9 11 9 11 12 8 2 10 15 18 18 15 15 13 13 11 8 6 5 5 7 9 11 13 15 15 15 17 17 16 17 18 18 23 25 22 20 20 19 19 18 16
Wind_Direction
168 233 71 56 45 52 47 292 294 215 130 292 265 291 286 218 226 213 205 201 197 194 189 191 207 232 255 269 266 268 281 283 287 292 289 291 291 288 289 288 294 299 295 300
196 95 98 88 69 25 324 298 37 191 185 294 300 287 297 239 225 223 211 205 201 196 192 202 224 251 266 273 279 279 287 293 292 291 284 288 289 288 286 289 293 304 304 300
9 116 121 232 147 313 52 333 337 320 319 273 289 273 197 196 231 219 224 220 213 207 208 218 239 259 271 279 286 287 287 292 294 293 297 296 292 293 289 288 288 289 290 301
104 139 188 235 70 335 305 2 303 298 303 306 1 306 139 127 218 219 223 222 221 217 224 234 251 267 278 285 284 283 287 290 303 298 302 296 307 303 292 300 295 294 301 296
101 173 195 269 39 337 12 317 312 301 283 302 151 274 107 50 265 234 230 228 227 230 229 241 262 276 281 280 289 296 296 299 300 303 304 306 306 301 301 298 298 296 301 295
96 116 285 27 124 346 318 282 253 272 259 232 78 333 103 26 360 353 270 225 229 228 231 248 266 271 290 295 299 304 301 303 300 298 302 303 302 304 303 301 301 300 296 294
172 161 133 235 267 185 315 335 309 246 251 333 75 292 34 33 15 343 20 208 215 220 234 248 258 275 289 303 307 305 302 302 303 305 306 307 304 304 306 302 302 299 301 299
270 167 185 131 313 331 348 329 333 314 328 328 128 248 70 44 37 303 270 247 214 216 228 243 265 288 300 301 304 303 302 302 304 308 306 306 305 305 303 302 296 296 296 299
254 206 121 55 313 307 38 299 11 286 240 262 66 182 196 198 219 239 241 222 216 221 230 251 284 296 299 302 304 305 306 308 308 308 308 306 305 301 300 301 296 297 293 293
171 271 149 113 216 105 296 87 241 184 297 313 333 274 355 348 268 223 243 240 226 227 244 275 294 301 303 305 309 310 308 308 309 309 308 306 304 302 298 298 294 289 295 299
192 254 137 203 184 335 200 213 222 301 294 298 305 21 48 6 360 326 301 246 242 251 270 286 301 304 306 309 311 311 310 311 311 311 309 310 311 304 298 293 293 295 301 299
74 283 272 355 80 295 281 302 289 284 231 250 289 294 77 30 349 329 306 213 235 264 289 301 305 306 310 313 314 314 314 314 314 311 310 311 310 313 305 302 299 302 300 301
168 194 285 241 175 156 249 202 264 262 270 271 283 284 161 283 316 302 255 225 254 278 297 305 306 311 314 315 316 316 317 318 317 312 311 312 308 306 306 306 302 305 306 304
158 197 276 284 337 322 282 254 243 255 278 280 280 309 327 326 329 246 240 258 279 297 308 307 309 314 316 317 316 316 318 320 323 321 315 311 315 308 310 315 315 313 311 313
231 257 241 275 282 279 282 278 263 241 262 272 294 312 324 347 345 284 256 278 290 305 307 308 313 315 317 317 317 317 318 322 324 320 321 318 314 315 312 319 317 316 316 318
191 245 246 270 248 272 272 259 259 255 264 270 279 290 39 329 302 266 272 291 300 306 309 311 315 316 318 319 317 319 320 321 323 326 323 326 328 320 320 321 317 314 319 322
189 189 240 289 307 290 272 249 209 233 248 273 280 346 329 304 289 291 294 299 305 308 308 313 317 319 319 319 319 321 316 320 323 323 324 325 324 324 325 324 323 315 318 317
189 208 256 291 289 263 67 92 350 273 278 251 260 288 308 298 302 290 294 304 305 305 306 311 316 318 320 322 321 321 321 323 322 328 334 326 323 324 332 333 330 325 318 308
222 214 232 270 284 294 269 209 223 241 285 235 262 297 292 288 296 271 225 297 302 298 303 311 317 319 322 325 321 324 326 324 330 334 334 331 327 332 338 342 339 331 329 330
196 244 246 233 277 281 350 148 169 196 281 170 243 278 285 247 290 37 38 308 300 296 304 312 319 324 325 325 325 325 327 336 336 337 341 339 333 338 342 346 337 333 340 327
188 215 234 253 253 273 280 186 168 248 260 156 263 269 254 241 290 270 285 287 293 290 300 312 324 325 326 327 325 326 330 336 333 337 341 344 346 347 350 338 344 351 344 335
222 220 229 254 265 262 147 152 227 275 237 277 265 259 254 261 257 251 261 273 283 290 302 313 322 325 329 331 326 328 335 333 336 339 341 345 351 355 350 352 354 1 357 6
247 250 269 217 253 80 187 234 239 238 276 290 282 278 268 267 259 252 251 264 275 288 300 316 321 326 330 332 325 330 337 342 342 340 344 351 357 356 0 1 1 359 356 3
232 225 239 231 243 255 253 260 259 240 264 280 274 271 275 268 259 243 238 254 264 290 303 314 324 325 330 329 326 338 344 341 346 341 345 354 358 1 9 12 11 357 1 31
289 172 242 243 261 271 260 267 263 245 264 279 280 267 273 265 247 232 233 239 256 283 304 314 324 326 329 327 337 339 347 347 345 343 344 356 1 7 13 25 20 11 39 49
231 262 236 258 343 333 297 11 298 288 297 302 298 290 279 255 238 220 221 222 240 280 303 315 323 326 329 337 338 342 348 347 345 345 345 359 2 9 17 24 34 41 54 66